When you browse on this site, cookies collect data to enhance your experience and personalize the content and advertising you see.
Visit our Privacy Policy to learn more. By continuing to use the site, you agree to this use of cookies and data.
  • en Suisse
  • Liste des pays
  • À 7 jours
  • Température de l'eau
  • Carte satellitaire
  • Carte météo
  • Widgets météo
  • user-avatar
    Se connecter

    Météo par heure à Mesznary

    Ce jour, 25 Avril, Jeudi

    Heure Température Précipitation Vent Pression Humidité
    00:00 +13°C° 0 mm 5 m/s 745 mmHg 73%
    01:00 +13°C° 0 mm 5 m/s 745 mmHg 74%
    02:00 +13°C° 0 mm 5 m/s 745 mmHg 76%
    03:00 +12°C° 0 mm 5 m/s 745 mmHg 79%
    04:00 +12°C° 0 mm 4 m/s 745 mmHg 81%
    05:00 +13°C° 0 mm 5 m/s 745 mmHg 79%
    06:00 +14°C° 0 mm 5 m/s 745 mmHg 77%
    07:00 +15°C° 0 mm 6 m/s 745 mmHg 75%
    08:00 +17°C° 0 mm 5 m/s 746 mmHg 71%
    09:00 +19°C° 0 mm 5 m/s 746 mmHg 67%
    10:00 +20°C° 0 mm 4 m/s 746 mmHg 62%
    11:00 +21°C° 0 mm 4 m/s 746 mmHg 59%
    12:00 +22°C° 0 mm 4 m/s 746 mmHg 56%
    13:00 +24°C° 0 mm 3 m/s 746 mmHg 53%
    14:00 +24°C° 0 mm 3 m/s 746 mmHg 52%
    15:00 +25°C° 0 mm 3 m/s 746 mmHg 52%
    16:00 +25°C° 0 mm 3 m/s 746 mmHg 52%
    17:00 +22°C° 0 mm 3 m/s 746 mmHg 59%
    18:00 +20°C° 0 mm 3 m/s 746 mmHg 67%
    19:00 +19°C° 0 mm 3 m/s 745 mmHg 74%
    20:00 +18°C° 0 mm 3 m/s 745 mmHg 75%
    21:00 +17°C° 0 mm 3 m/s 746 mmHg 76%
    22:00 +17°C° 0 mm 3 m/s 746 mmHg 77%
    23:00 +16°C° 0 mm 3 m/s 745 mmHg 77%

    Demain, 26 Avril, Vendredi

    Heure Température Précipitation Vent Pression Humidité
    00:00 +16°C° 0 mm 3 m/s 745 mmHg 78%
    01:00 +14°C° 0 mm 3 m/s 745 mmHg 78%
    02:00 +14°C° 0 mm 3 m/s 744 mmHg 79%
    03:00 +14°C° 0 mm 3 m/s 744 mmHg 79%
    04:00 +13°C° 0 mm 3 m/s 744 mmHg 80%
    05:00 +14°C° 0 mm 4 m/s 743 mmHg 76%
    06:00 +17°C° 0 mm 4 m/s 743 mmHg 73%
    07:00 +18°C° 0 mm 4 m/s 743 mmHg 69%
    08:00 +19°C° 0 mm 4 m/s 743 mmHg 63%
    09:00 +20°C° 0 mm 5 m/s 742 mmHg 58%
    10:00 +22°C° 0 mm 5 m/s 742 mmHg 52%
    11:00 +23°C° 0 mm 5 m/s 742 mmHg 50%
    12:00 +25°C° 0 mm 5 m/s 742 mmHg 47%
    13:00 +26°C° 0 mm 5 m/s 741 mmHg 45%
    14:00 +26°C° 0 mm 5 m/s 741 mmHg 45%
    15:00 +26°C° 0 mm 4 m/s 741 mmHg 46%
    16:00 +27°C° 0 mm 4 m/s 740 mmHg 46%
    17:00 +25°C° 0 mm 3 m/s 740 mmHg 52%
    18:00 +22°C° 0 mm 3 m/s 740 mmHg 57%
    19:00 +21°C° 0 mm 2 m/s 740 mmHg 63%
    20:00 +20°C° 0 mm 3 m/s 740 mmHg 61%
    21:00 +20°C° 0 mm 4 m/s 740 mmHg 60%
    22:00 +20°C° 0 mm 5 m/s 740 mmHg 58%
    23:00 +19°C° 0 mm 5 m/s 741 mmHg 68%

    Après-demain, 27 Avril, Samedi

    Heure Température Précipitation Vent Pression Humidité
    00:00 +16°C° 0 mm 6 m/s 741 mmHg 78%
    01:00 +15°C° 0 mm 6 m/s 741 mmHg 88%
    02:00 +14°C° 0 mm 6 m/s 742 mmHg 86%
    03:00 +14°C° 0 mm 6 m/s 742 mmHg 83%
    04:00 +12°C° 0 mm 7 m/s 743 mmHg 80%
    05:00 +11°C° 0 mm 7 m/s 743 mmHg 80%
    06:00 +11°C° 0 mm 7 m/s 743 mmHg 79%
    07:00 +10°C° 0 mm 7 m/s 744 mmHg 79%
    08:00 +10°C° 0 mm 7 m/s 744 mmHg 77%
    09:00 +10°C° 0 mm 7 m/s 744 mmHg 75%
    10:00 +11°C° 0 mm 6 m/s 745 mmHg 73%
    11:00 +13°C° 0 mm 6 m/s 745 mmHg 69%
    12:00 +14°C° 0 mm 6 m/s 745 mmHg 65%
    13:00 +15°C° 0 mm 5 m/s 745 mmHg 61%
    14:00 +15°C° 0 mm 5 m/s 745 mmHg 59%
    15:00 +15°C° 0 mm 5 m/s 745 mmHg 57%
    16:00 +16°C° 0 mm 5 m/s 745 mmHg 55%
    17:00 +15°C° 0 mm 4 m/s 745 mmHg 58%
    18:00 +14°C° 0 mm 3 m/s 745 mmHg 62%
    19:00 +14°C° 0 mm 2 m/s 745 mmHg 66%
    20:00 +13°C° 0 mm 2 m/s 745 mmHg 68%
    21:00 +12°C° 0 mm 2 m/s 746 mmHg 71%
    22:00 +11°C° 0 mm 1 m/s 746 mmHg 74%
    23:00 +11°C° 0 mm 1 m/s 746 mmHg 77%

    28 Avril, Dimanche

    Heure Température Précipitation Vent Pression Humidité
    00:00 +10°C° 0 mm 1 m/s 746 mmHg 79%
    01:00 +10°C° 0 mm 1 m/s 746 mmHg 82%
    02:00 +8°C° 0 mm 2 m/s 746 mmHg 82%
    03:00 +8°C° 0 mm 2 m/s 746 mmHg 82%
    04:00 +8°C° 0 mm 2 m/s 746 mmHg 82%
    05:00 +9°C° 0 mm 2 m/s 747 mmHg 79%
    06:00 +10°C° 0 mm 2 m/s 747 mmHg 76%
    07:00 +11°C° 0 mm 3 m/s 747 mmHg 73%
    08:00 +12°C° 0 mm 3 m/s 748 mmHg 71%
    09:00 +13°C° 0 mm 4 m/s 748 mmHg 69%
    10:00 +14°C° 0 mm 4 m/s 748 mmHg 67%
    11:00 +14°C° 0.2 mm 5 m/s 748 mmHg 68%
    12:00 +14°C° 0.2 mm 5 m/s 748 mmHg 70%
    13:00 +13°C° 0.2 mm 5 m/s 748 mmHg 71%
    14:00 +13°C° 1.2 mm 4 m/s 747 mmHg 76%
    15:00 +12°C° 1.2 mm 4 m/s 747 mmHg 80%
    16:00 +12°C° 1.2 mm 3 m/s 747 mmHg 85%
    17:00 +12°C° 0.5 mm 3 m/s 747 mmHg 86%
    18:00 +12°C° 0.5 mm 4 m/s 747 mmHg 86%
    19:00 +12°C° 0.5 mm 4 m/s 747 mmHg 87%
    20:00 +11°C° 0 mm 4 m/s 747 mmHg 88%
    21:00 +11°C° 0 mm 4 m/s 747 mmHg 90%
    22:00 +11°C° 0 mm 4 m/s 747 mmHg 91%
    23:00 +11°C° 0 mm 4 m/s 747 mmHg 93%

    29 Avril, Lundi

    Heure Température Précipitation Vent Pression Humidité
    00:00 +11°C° 0 mm 4 m/s 747 mmHg 94%
    01:00 +11°C° 0 mm 4 m/s 747 mmHg 96%
    02:00 +10°C° 0.2 mm 4 m/s 747 mmHg 96%
    03:00 +10°C° 0.2 mm 4 m/s 746 mmHg 96%
    04:00 +9°C° 0.2 mm 5 m/s 746 mmHg 96%
    05:00 +10°C° 0.3 mm 5 m/s 746 mmHg 95%
    06:00 +12°C° 0.3 mm 5 m/s 746 mmHg 94%
    07:00 +11°C° 0.3 mm 6 m/s 746 mmHg 93%
    08:00 +11°C° 0.5 mm 6 m/s 746 mmHg 91%
    09:00 +11°C° 0.5 mm 7 m/s 746 mmHg 89%
    10:00 +11°C° 0.5 mm 8 m/s 747 mmHg 86%
    11:00 +12°C° 0 mm 7 m/s 747 mmHg 83%
    12:00 +14°C° 0 mm 7 m/s 747 mmHg 79%
    13:00 +14°C° 0 mm 7 m/s 747 mmHg 75%
    14:00 +14°C° 0 mm 7 m/s 747 mmHg 73%
    15:00 +14°C° 0 mm 7 m/s 747 mmHg 71%
    16:00 +14°C° 0 mm 7 m/s 747 mmHg 69%
    17:00 +14°C° 0 mm 6 m/s 748 mmHg 70%
    18:00 +13°C° 0 mm 5 m/s 748 mmHg 71%
    19:00 +12°C° 0 mm 4 m/s 748 mmHg 72%
    20:00 +12°C° 0 mm 4 m/s 749 mmHg 70%
    21:00 +12°C° 0 mm 5 m/s 749 mmHg 68%
    22:00 +10°C° 0 mm 5 m/s 750 mmHg 66%
    23:00 +9°C° 0 mm 5 m/s 750 mmHg 66%

    30 Avril, Mardi

    Heure Température Précipitation Vent Pression Humidité
    00:00 +8°C° 0 mm 5 m/s 750 mmHg 67%
    01:00 +7°C° 0 mm 5 m/s 750 mmHg 68%
    02:00 +7°C° 0 mm 5 m/s 750 mmHg 68%
    03:00 +6°C° 0 mm 5 m/s 750 mmHg 69%
    04:00 +6°C° 0 mm 5 m/s 750 mmHg 70%
    05:00 +6°C° 0 mm 5 m/s 750 mmHg 68%
    06:00 +7°C° 0 mm 6 m/s 751 mmHg 66%
    07:00 +8°C° 0 mm 6 m/s 751 mmHg 64%
    08:00 +9°C° 0 mm 7 m/s 751 mmHg 58%
    09:00 +10°C° 0 mm 7 m/s 751 mmHg 52%
    10:00 +11°C° 0 mm 7 m/s 751 mmHg 45%
    11:00 +11°C° 0 mm 7 m/s 750 mmHg 44%
    12:00 +12°C° 0 mm 7 m/s 750 mmHg 43%
    13:00 +14°C° 0 mm 7 m/s 750 mmHg 42%
    14:00 +12°C° 0 mm 7 m/s 750 mmHg 43%
    15:00 +12°C° 0 mm 7 m/s 750 mmHg 43%
    16:00 +13°C° 0 mm 6 m/s 750 mmHg 44%
    17:00 +12°C° 0 mm 5 m/s 750 mmHg 49%
    18:00 +10°C° 0 mm 5 m/s 750 mmHg 53%
    19:00 +8°C° 0 mm 4 m/s 750 mmHg 58%
    20:00 +8°C° 0 mm 4 m/s 750 mmHg 59%
    21:00 +7°C° 0 mm 4 m/s 750 mmHg 59%
    22:00 +6°C° 0 mm 4 m/s 750 mmHg 59%
    23:00 +6°C° 0 mm 4 m/s 750 mmHg 61%
    Voir plus